BRICSAT2 (NO-103) (44355 NORAD) Tracking and Keplerian Element Data

This shows tracking and keplerian element data for the satellite.

Feedback or suggestion? Click here.




ElementValue
Catalog44355
NameBRICSAT2 (NO-103)
Epoch Orbit7339
Epoch Day298.19353567
Epoch Year2020
RAAN236.8619
Inclination28.5311
Eccentricity0.0324973
Argument of Perigee275.63
Mean Anonmoly80.7325
Mean Motion15.13465444
Decay Rate0.00032692
L11 44355U 19036S 20298.19353567 .00032692 00000-0 43784-3 0 9991
L22 44355 28.5311 236.8619 0324973 275.6300 80.7325 15.13465444 73393

Live tracking and technical data element details for BRICSAT2 (NO-103) (NORAD 44355). BRICSAT2 (NO-103) can be tracked NOW for your location showing map with azimuth and elevation plus other details from your city location.

Track the satellite on the map from your city or location and see movement details for azimuth, elevation, latitude, longitude, range, height, and movement on the map or in text.







IsCatalogInMostPopularTable: catalog: 44355, numindb: 115
Update: records affected: 1



GetName: 44355 BRICSAT2 (NO-103)

Hit Count: updated at: Sun, 25 Oct 2020 07:29:42 GMT